Weather History for Bishop, CA

Change the Weather History Date:

Friday, June 28, 2013

  Actual Average Record
Temperature  
Mean Temperature 86 °F 75 °F  
Max Temperature 107 °F 96 °F 107 °F (2013)
Min Temperature 65 °F 54 °F 43 °F (1989)
Degree Days  
Heating Degree Days 0 0  
Month to date heating degree days 0 17  
Since 1 June heating degree days 0 17  
Since 1 July heating degree days 3851 4175  
Cooling Degree Days 21 10  
Month to date cooling degree days 290 192  
Year to date cooling degree days 376 260  
Since 1 June cooling degree days 290 192  
Growing Degree Days 36 (Base 50)    
Moisture  
Dew Point 36 °F    
Average Humidity 22    
Maximum Humidity 37    
Minimum Humidity 6    
Precipitation  
Precipitation 0.00 in 0.00 in 0.12 in (1995)
Month to date precipitation T 0.18  
Year to date precipitation 0.47 3.06  
Snow  
Snow 0.00 in 0.00 in - ()
Month to date snowfall 0.0 0.0  
Since 1 June snowfall 0.0 0.0  
Since 1 July snowfall 2.8 6.8  
Snow Depth 0.00 in    
Sea Level Pressure  
Sea Level Pressure 29.92 in    
Wind  
Wind Speed 7 mph (WNW)    
Max Wind Speed 35 mph    
Max Gust Speed 43 mph    
Visibility 10 miles    
Events      
T = Trace of Precipitation, MM = Missing Value Source: NWS Daily Summary

Daily Weather History Graph

Daily Weather History Graph

Search for Another Location

Airport:

Trip Planner

Search our weather history database for the weather conditions in past years. The results will help you decide how hot, cold, wet, or windy it might be!

Date:

Astronomy

Jun. 28, 2013 Rise Set
Actual Time 5:35 AM PDT 8:18 PM PDT
Civil Twilight 5:04 AM PDT 8:49 PM PDT
Nautical Twilight 4:25 AM PDT 9:27 PM PDT
Astronomical Twilight 3:41 AM PDT 10:11 PM PDT
Moon 11:58 PM PDT (6/28) 11:39 AM PDT (6/28)
Length of Visible Light 15h 44m
Length of Day
14h 42m
Waning Gibbous, 65% of the Moon is Illuminated
Jun 28
Waning Gibbous
Jun 29
Last Quarter
Jul 8
New
Jul 15
First Quarter
Jul 22
Full

Hourly Weather History & Observations

Time (PDT) Temp. Dew Point Humidity Pressure Visibility Wind Dir Wind Speed Gust Speed Precip Events Conditions
12:56 AM 75.0 °F 39.0 °F 27% 29.97 in 10.0 mi WSW 3.5 mph - N/A   Clear
1:56 AM 70.0 °F 39.9 °F 33% 29.98 in 10.0 mi North 8.1 mph - N/A   Clear
2:56 AM 73.0 °F 37.0 °F 27% 29.97 in 10.0 mi NNW 5.8 mph - N/A   Clear
3:56 AM 71.1 °F 39.0 °F 31% 29.97 in 10.0 mi NW 5.8 mph - N/A   Clear
4:56 AM 69.1 °F 39.0 °F 33% 29.99 in 10.0 mi North 9.2 mph - N/A   Clear
5:56 AM 66.9 °F 39.9 °F 37% 30.00 in 10.0 mi WNW 5.8 mph - N/A   Clear
6:56 AM 75.0 °F 42.1 °F 31% 30.00 in 10.0 mi NW 4.6 mph - N/A   Clear
7:56 AM 82.9 °F 41.0 °F 23% 29.99 in 10.0 mi NW 5.8 mph - N/A   Clear
8:56 AM 89.1 °F 39.0 °F 17% 29.98 in 10.0 mi West 5.8 mph - N/A   Clear
9:56 AM 91.9 °F 39.0 °F 16% 29.96 in 10.0 mi West 4.6 mph - N/A   Clear
10:56 AM 97.0 °F 37.9 °F 13% 29.94 in 10.0 mi Variable 4.6 mph - N/A   Clear
11:56 AM 99.0 °F 37.9 °F 12% 29.93 in 10.0 mi SSW 5.8 mph - N/A   Clear
12:16 PM 100.4 °F 35.6 °F 11% 30.11 in 7.0 mi Variable 5.8 mph - N/A   Partly Cloudy
12:56 PM 102.0 °F 35.1 °F 10% 29.90 in 10.0 mi South 8.1 mph 18.4 mph N/A   Clear
1:56 PM 102.9 °F 33.1 °F 9% 29.88 in 10.0 mi Variable 5.8 mph - N/A   Clear
2:56 PM 105.1 °F 27.0 °F 6% 29.83 in 10.0 mi South 10.4 mph 19.6 mph N/A   Clear
3:56 PM 102.9 °F 28.9 °F 7% 29.82 in 10.0 mi South 10.4 mph 23.0 mph N/A   Clear
4:56 PM 102.0 °F 30.0 °F 8% 29.82 in 10.0 mi SW 9.2 mph - N/A   Clear
5:56 PM 99.0 °F 35.1 °F 11% 29.83 in 10.0 mi Calm Calm - N/A   Clear
6:56 PM 97.0 °F 37.0 °F 12% 29.82 in 10.0 mi WNW 4.6 mph - N/A   Clear
7:56 PM 95.0 °F 33.1 °F 11% 29.84 in 10.0 mi WSW 21.9 mph 33.4 mph N/A   Clear
8:56 PM 90.0 °F 30.9 °F 12% 29.84 in 10.0 mi ENE 13.8 mph 20.7 mph N/A   Clear
9:56 PM 84.9 °F 30.9 °F 14% 29.84 in 10.0 mi WSW 8.1 mph - N/A   Clear
10:56 PM 77.0 °F 33.1 °F 20% 29.87 in 10.0 mi NE 4.6 mph - N/A   Clear
11:56 PM 78.1 °F 37.9 °F 24% 29.88 in 10.0 mi NNW 6.9 mph - N/A   Clear